Voltar ao catálogo

STARLINK-34271

AtivoComunicaçõesVLEO
NORAD 64384·PAYLOAD·🇺🇸 United States

Lançado Jun 13, 2025 de Cape Canaveral Space Force Station

Loading…

Próximas Passagens (próximas 24 horas)

TLE

AtualizadoSource: CelesTrak SupGP

Época: Sep 15, 2026, 03:35 UTC

1 64384C 25127Q   26258.14979167 -.00007597  00000+0 -27523-3 0  2588
2 64384  42.9994 190.0409 0000892 272.0248 311.6647 15.27576297    11

Acompanhe STARLINK-34271 em tempo real com AllMySat

Download on the App Store